SCP
0 0 0 0 0 0 0 0 0 0 1 2 2 2 2 2 2 2 2 3 5 6 6 6 5 4 4 6 8 11 12 12 11 9 9 9 9 9 9 9 7 6 6 6
0 0 0 0 0 0 0 0 0 1 1 2 2 3 3 2 2 2 2 3 5 6 6 6 5 4 4 5 7 10 12 12 11 9 9 9 9 10 10 9 8 7 6 6
0 0 0 0 0 0 1 1 1 1 1 2 3 4 3 3 2 2 3 4 5 7 8 7 6 5 4 5 6 8 10 11 11 10 9 8 8 9 10 9 7 7 6 6
0 0 0 1 1 1 1 1 1 1 1 2 4 5 4 3 2 3 4 5 7 8 9 9 7 6 5 5 5 6 7 10 11 11 9 7 7 8 8 7 7 6 6 6
0 0 1 1 1 1 1 1 1 1 1 2 4 4 4 3 2 3 4 6 7 9 9 8 7 6 6 6 5 5 5 7 8 9 8 7 7 8 8 8 8 7 6 6
1 1 1 1 1 1 1 1 1 1 1 2 3 3 3 3 4 5 6 7 8 9 9 8 7 6 6 6 5 5 5 5 6 6 7 7 8 9 11 11 10 9 7 6
0 0 1 1 1 1 1 1 1 1 2 2 3 3 4 5 6 8 10 10 9 9 9 9 8 7 7 6 6 5 4 4 4 5 5 6 7 10 13 14 14 13 10 8
1 1 1 1 1 1 2 2 2 2 2 3 4 6 6 7 8 10 11 11 10 9 9 9 9 9 8 8 7 5 4 4 4 4 4 5 6 8 11 14 16 16 13 11
1 1 1 1 2 2 2 2 2 2 2 4 6 8 9 8 8 9 9 9 8 8 8 9 9 8 8 8 8 6 5 4 4 4 4 5 6 6 8 11 13 14 14 12
2 1 1 1 2 2 2 2 2 2 3 5 7 10 10 9 8 7 7 7 7 7 7 7 7 7 6 6 6 5 4 4 3 3 4 5 5 5 6 7 8 10 11 11
2 2 2 2 2 2 2 3 2 2 3 5 7 9 9 8 7 7 7 7 7 6 5 4 5 5 4 4 3 3 3 2 2 3 4 5 5 5 4 4 5 6 8 9
2 2 2 3 2 2 2 2 2 2 3 4 7 8 8 7 7 7 7 7 7 6 4 3 3 3 3 2 2 2 2 2 2 3 4 5 5 5 4 3 3 4 4 4
3 3 3 3 3 3 3 3 2 2 3 5 6 7 6 6 7 8 7 8 8 7 5 4 3 3 3 3 3 2 2 1 2 2 3 4 5 5 4 3 3 2 2 1
4 4 4 4 4 4 5 4 3 3 4 5 5 6 5 6 7 8 8 8 8 7 6 5 4 4 3 3 3 3 2 1 2 2 2 3 4 5 5 5 4 3 2 1
4 4 4 4 5 6 6 5 4 4 5 6 5 5 5 6 6 8 8 8 8 8 7 6 5 4 4 4 4 3 2 1 1 1 1 2 3 4 5 5 4 3 2 1
4 5 4 4 6 7 6 4 4 5 6 6 5 5 5 5 6 7 8 7 7 7 7 6 5 4 5 5 4 3 2 1 1 1 1 1 2 2 3 4 3 3 2 2
5 5 5 5 6 7 5 4 4 5 6 7 6 5 5 5 5 6 6 6 6 6 6 5 4 4 5 5 5 3 2 1 1 1 1 1 1 1 2 2 2 2 2 2
5 5 5 5 5 6 5 4 5 6 8 8 7 6 5 5 4 4 4 5 5 4 4 4 4 3 4 5 5 3 2 1 1 1 1 1 0 1 1 1 2 2 2 1
4 4 4 5 5 5 5 5 6 8 9 9 7 6 5 4 3 3 3 3 3 2 2 3 3 3 3 4 4 3 1 0 0 0 0 0 0 1 1 1 2 2 2 2
3 3 4 4 4 5 5 6 8 8 8 7 6 4 3 3 2 2 2 2 2 2 1 2 3 3 4 3 2 1 1 0 0 0 0 0 0 1 1 1 2 2 2 2
2 2 3 4 4 4 4 5 6 6 5 4 3 2 2 2 2 1 1 2 2 2 1 2 3 4 3 2 1 0 0 0 0 0 0 0 0 1 1 1 2 2 2 2
1 2 2 3 3 3 3 3 3 2 2 1 1 1 1 1 1 1 1 1 1 1 2 2 2 2 2 1 0 0 0 0 0 0 0 0 0 1 1 1 2 1 1 1
2 2 2 2 2 2 2 1 1 1 1 1 1 1 1 1 1 1 1 0 1 1 2 2 1 1 1 1 0 0 0 0 0 0 0 0 0 1 1 1 2 2 1 1
3 3 3 3 2 1 1 1 1 1 1 1 1 1 1 1 0 0 1 1 0 1 1 1 0 0 0 1 1 0 0 0 0 0 0 0 0 1 1 1 1 2 2 1
3 3 4 4 3 2 1 1 1 1 1 1 1 1 1 1 1 1 1 1 0 0 0 0 0 0 0 1 1 0 0 0 0 0 0 0 1 1 1 1 1 2 2 2
3 3 4 4 4 2 1 1 1 1 1 1 1 1 1 1 2 2 2 1 0 0 0 0 0 0 0 0 0 0 0 0 0 0 0 0 0 1 1 1 1 2 2 2
3 3 4 4 3 2 2 1 1 2 2 2 1 1 1 1 2 2 1 1 0 0 0 0 0 0 0 0 0 0 0 0 0 0 0 0 0 1 1 1 1 2 2 1
Wind_Speed
13 10 10 12 13 14 17 16 16 13 12 9 7 5 4 3 2 2 2 3 3 3 4 5 5 5 6 6 6 7 8 8 8 7 7 6 5 5 5 5 6 5 5 6
13 13 13 14 14 15 16 16 16 15 12 6 5 4 4 4 3 3 3 3 3 3 4 5 5 5 5 5 6 6 7 7 6 6 7 6 6 6 5 5 5 5 6 6
12 11 13 17 15 15 15 14 13 14 9 5 6 6 6 5 4 3 3 3 3 3 3 4 5 5 6 6 6 6 7 7 7 7 7 6 6 5 5 5 5 5 5 5
10 10 17 8 5 9 12 11 11 9 6 6 5 4 4 4 4 3 3 3 3 3 3 4 4 5 5 5 6 6 6 6 6 6 6 5 5 5 5 4 4 4 5 5
10 14 13 8 7 7 10 10 9 9 7 6 4 4 5 4 3 3 2 2 2 2 3 3 4 5 5 5 5 6 5 5 5 5 5 6 6 5 5 4 4 5 5 5
11 13 13 5 5 4 8 10 5 6 7 6 7 7 4 4 3 2 2 2 2 2 3 3 3 4 4 5 5 5 4 4 4 4 4 5 5 4 4 4 3 4 3 4
14 13 9 1 4 6 10 3 2 4 6 7 7 4 2 4 3 3 2 3 3 2 3 3 3 4 3 3 3 3 3 3 3 3 4 4 4 3 3 3 3 3 3 3
11 14 9 2 5 6 2 2 1 2 3 4 2 1 3 4 4 4 3 3 3 3 3 3 3 3 3 2 2 2 3 3 3 3 2 3 3 3 3 3 3 3 4 4
7 5 1 1 3 3 3 3 2 2 2 3 3 3 4 4 4 3 3 3 3 3 3 3 2 2 2 2 2 2 2 3 2 2 2 2 2 3 3 3 3 3 3 3
7 5 4 3 2 2 3 4 4 3 2 3 3 3 3 3 3 3 3 3 3 4 4 3 2 2 2 2 2 3 3 2 3 3 2 2 1 2 2 2 2 2 3 3
8 6 5 4 3 3 3 3 3 2 2 3 3 3 3 3 3 2 3 3 3 3 3 3 2 2 3 2 2 3 3 2 2 2 2 2 1 0 1 1 2 2 2 2
7 5 6 5 4 4 4 3 2 2 2 3 3 3 3 3 2 2 3 3 3 3 3 3 2 2 2 2 2 2 2 2 1 1 1 1 1 1 2 1 2 2 3 3
7 7 6 6 5 4 4 3 3 3 3 3 3 3 4 3 2 3 3 3 3 3 3 3 2 2 2 2 2 2 2 1 1 1 1 1 1 1 1 1 1 0 1 2
6 6 7 6 5 4 3 3 3 3 4 4 4 4 4 4 3 3 3 3 3 3 3 3 2 2 2 2 2 2 2 2 1 1 1 1 1 1 1 1 1 1 1 1
6 6 6 4 3 4 4 5 5 5 4 4 4 4 4 4 4 3 3 4 4 4 3 3 3 2 1 1 2 1 1 1 1 1 1 1 1 1 1 1 1 0 1 2
5 4 4 5 5 5 5 6 6 5 5 4 4 5 5 5 4 3 4 4 5 4 3 3 3 2 2 2 2 2 2 2 1 1 1 1 1 1 1 1 1 1 1 1
6 6 6 6 6 6 5 5 5 5 5 5 5 5 5 5 5 5 4 4 4 4 3 3 2 2 1 1 1 1 1 2 2 1 0 0 1 1 1 1 1 1 1 2
6 6 6 6 5 5 5 4 4 5 5 5 5 6 6 6 5 5 4 4 3 3 3 3 3 2 1 1 1 0 1 1 1 0 0 1 1 1 2 1 1 1 1 1
3 4 4 5 5 5 5 5 5 5 5 6 6 6 5 5 5 5 5 4 3 3 3 3 2 2 2 2 0 1 1 1 1 1 0 0 1 1 1 1 1 1 1 1
3 4 5 5 5 5 5 5 6 6 6 6 6 6 5 5 5 5 4 3 2 2 3 3 3 2 2 2 1 1 1 0 0 0 0 1 1 1 1 1 1 2 2 1
5 5 5 5 5 5 5 6 6 6 6 6 6 6 5 5 5 5 4 4 4 3 3 4 2 2 1 0 1 0 1 1 1 1 1 1 1 1 1 1 1 1 1 2
4 4 5 5 5 5 5 5 6 6 6 6 6 5 5 5 5 5 4 2 4 4 3 3 3 2 1 1 1 0 0 1 1 1 1 1 2 1 1 2 2 2 2 2
4 4 5 5 5 5 5 5 6 6 6 5 5 4 4 3 3 3 4 3 3 3 2 2 3 2 1 2 1 0 0 0 1 1 2 2 1 1 2 2 2 2 2 3
5 4 5 5 5 5 5 5 5 5 5 5 4 4 3 3 3 3 3 4 4 3 2 3 3 1 3 2 1 1 1 1 1 2 2 2 2 2 2 2 3 3 3 3
4 5 5 5 5 4 5 5 5 5 5 4 4 4 3 2 2 3 3 4 5 4 3 4 4 4 3 1 1 1 1 1 2 3 2 2 3 3 3 3 3 3 3 3
4 4 4 4 4 4 4 3 3 3 3 3 3 3 3 3 3 4 4 5 5 3 2 2 3 4 2 1 1 1 1 1 1 2 2 3 3 3 3 3 3 3 3 3
4 4 4 3 4 3 3 3 3 3 2 3 3 3 3 4 4 4 4 3 3 2 2 1 1 1 0 0 1 1 1 2 2 2 2 2 3 2 2 3 3 3 3 3
Wind_Direction
255 259 249 241 232 227 235 248 258 260 257 252 238 231 219 211 192 171 154 145 138 149 154 159 166 173 180 182 181 184 183 187 189 190 191 195 197 201 205 212 216 216 218 219
244 242 242 245 239 234 237 243 250 257 258 248 231 216 208 208 199 185 178 163 150 149 161 167 173 178 181 183 182 182 186 188 185 187 189 191 191 197 201 208 215 215 220 220
242 234 239 239 234 235 237 240 247 250 247 207 211 216 218 210 205 194 194 182 168 164 170 174 179 182 184 186 184 184 187 188 186 188 190 192 195 198 203 208 212 216 221 221
245 230 237 241 220 238 240 241 244 247 230 216 220 217 223 224 213 199 194 183 173 176 172 173 178 177 181 180 182 186 186 187 187 189 188 189 195 199 204 209 215 220 223 228
240 235 239 229 210 220 232 238 236 231 221 208 190 212 213 201 199 187 176 167 168 171 165 164 171 170 176 182 182 184 181 183 185 189 192 193 198 200 204 211 217 225 228 229
236 245 244 225 171 211 240 236 212 216 212 197 201 230 192 148 149 142 150 154 159 155 153 160 160 164 172 177 178 181 179 181 183 190 195 195 193 196 202 208 217 225 226 230
235 242 245 175 156 200 230 223 136 209 212 212 228 286 92 142 147 140 139 146 147 152 152 149 154 155 162 163 176 177 172 177 182 186 197 192 185 187 197 205 214 229 228 231
231 240 235 141 205 228 311 19 206 220 218 220 225 133 141 141 143 144 144 148 147 142 130 130 142 152 158 162 164 175 178 174 171 175 193 171 174 185 197 206 213 225 224 232
240 247 26 293 277 304 301 283 274 258 246 215 191 177 163 157 153 150 150 145 138 129 121 120 135 152 158 159 165 172 173 167 162 165 172 170 186 195 204 214 230 240 234 237
245 238 247 261 283 297 292 284 276 265 243 219 208 178 165 164 155 147 142 141 140 132 126 122 123 129 133 141 157 164 168 168 167 165 166 153 206 212 215 226 238 253 256 248
244 245 258 248 272 289 297 291 268 250 237 217 190 174 171 158 151 151 147 143 145 137 132 125 118 115 117 132 158 161 159 170 179 167 141 142 139 10 265 344 329 299 292 275
254 250 259 260 270 271 263 263 243 216 215 201 187 177 165 155 153 152 145 139 136 133 132 126 120 110 108 124 151 170 171 170 172 160 144 160 145 129 64 25 38 9 343 320
273 277 277 273 271 267 254 240 213 200 194 180 173 166 159 158 156 151 147 148 144 139 133 123 116 105 99 106 124 139 148 163 199 180 167 179 187 195 173 124 134 204 327 336
259 257 254 250 253 248 231 209 187 179 175 166 159 155 153 151 146 145 145 144 142 133 125 113 105 95 92 107 120 131 154 147 195 179 179 181 192 215 240 247 179 148 135 143
256 257 246 247 240 223 202 185 176 174 166 160 155 154 151 147 139 130 127 131 129 124 118 108 103 94 85 113 134 153 171 155 162 156 186 189 201 227 239 267 298 342 94 113
250 243 223 215 215 203 189 184 179 173 168 163 155 149 139 129 124 120 123 136 139 132 122 111 105 97 97 125 142 153 138 108 158 183 187 192 216 249 267 280 307 338 351 21
231 221 212 208 206 195 189 186 184 177 169 161 154 146 138 133 128 124 129 133 130 132 130 124 113 104 114 128 154 156 144 133 163 200 167 313 311 323 316 306 320 333 359 41
239 227 218 205 198 190 183 173 167 165 163 156 157 154 148 144 139 135 139 136 136 131 120 114 107 124 139 134 149 159 149 148 157 123 73 3 341 323 307 317 330 323 323 114
209 192 181 177 178 174 166 160 158 153 148 148 148 147 144 142 143 140 140 141 142 135 122 113 130 156 143 118 147 185 174 159 157 147 147 137 247 293 316 318 311 315 323 336
139 146 155 154 157 159 155 149 145 143 144 144 143 143 145 146 147 144 143 139 124 105 120 117 134 132 133 120 262 174 141 106 57 47 3 323 321 324 325 319 318 327 334 336
127 128 133 139 140 142 146 146 144 141 140 147 148 146 144 144 145 143 144 133 119 116 123 127 130 115 107 73 221 142 105 88 56 8 337 334 329 329 333 321 311 309 309 307
125 125 124 131 140 138 138 141 140 138 139 144 147 145 144 148 150 145 140 129 125 134 156 139 122 82 29 286 200 144 84 48 1 334 322 308 300 311 326 323 318 316 312 306
114 117 122 130 135 132 132 134 137 137 139 144 148 151 152 147 150 150 147 146 141 140 167 121 96 101 267 237 229 214 187 257 279 289 294 296 306 307 298 298 304 305 305 304
120 124 127 126 126 128 130 130 131 135 137 139 146 150 157 156 150 142 125 124 124 139 144 108 127 194 246 241 250 260 267 277 281 287 293 298 296 293 297 302 306 306 303 298
125 123 122 127 132 133 133 136 135 137 144 142 145 149 154 142 132 125 126 125 133 157 158 151 174 210 224 242 268 294 293 298 305 304 304 309 308 307 310 313 315 316 319 312
122 122 118 122 118 124 134 141 140 139 138 135 138 144 142 132 127 127 130 132 136 153 163 159 171 202 217 249 288 296 296 291 289 302 326 324 319 317 324 327 321 323 320 317
125 119 119 118 118 122 125 130 127 123 124 133 133 132 135 132 131 130 129 130 136 139 141 161 179 180 159 357 337 339 344 342 338 342 347 349 348 346 343 336 332 335 333 332